Location: Casco Volunteer Fire Department
(44.5576°N, 87.6146°W)
Time: 04:40:13
(UTC+00:00)

SeaSat 1 - Pass Details

Date: 22 January 2026
Orbit: 737 x 739 km, 108.0° (Epoch: 10 February)

Event Time Altitude Azimuth Distance (km) Brightness Sun altitude
Rises 12:24:10 0° 30° (NNE) 3,183 5.9 -9.8°
Reaches altitude 10° 12:26:28 10° 34° (NE) 2,256 5.1 -9.4°
Maximum altitude 12:31:19 61° 115° (ESE) 842 3.1 -8.6°
Drops below altitude 10° 12:36:08 10° 195° (SSW) 2,241 5.0 -7.8°
Sets 12:38:24 0° 199° (SSW) 3,159 5.7 -7.4°
